GW3347 Weather Reports


time (UTC)temp
F
wind
direction
speed
knots
gust
knots
rain 1hr
in
rain 24hr
in
rain mn
in
humidity
%
barometer
mb
20260504234531 67 0 0.0 0.0 0.00 0.00 0.00 57 1009.8
20260504233029 69 0 0.0 0.0 0.00 0.00 0.00 53 1009.7
20260504231540 69 0 0.0 0.0 0.00 0.00 0.00 49 1009.7
20260504230028 70 0 0.0 5.2 0.00 0.00 0.00 48 1009.7
20260504224537 69 0 0.0 5.2 0.00 0.00 0.00 49 1009.6
20260504223030 69 0 0.9 12.2 0.00 0.00 0.00 47 1009.7
20260504221530 69 172 5.2 14.8 0.00 0.00 0.00 45 1009.7
20260504220032 69 150 0.0 17.4 0.00 0.00 0.00 44 1009.7
20260504214531 70 0 5.2 15.6 0.00 0.00 0.00 42 1009.8
20260504213030 70 142 0.9 13.0 0.00 0.00 0.00 44 1009.8
20260504211531 71 196 0.0 14.8 0.00 0.00 0.00 43 1009.8
20260504210043 72 143 0.9 11.3 0.00 0.00 0.00 41 1009.8
20260504204528 76 142 2.6 9.6 0.00 0.00 0.00 38 1009.8
20260504203033 77 0 0.0 9.6 0.00 0.00 0.00 33 1009.8
20260504201531 76 0 0.0 0.0 0.00 0.00 0.00 34 1009.8
20260504200032 76 0 0.0 5.2 0.00 0.00 0.00 32 1009.9
20260504194542 76 0 0.0 7.8 0.00 0.00 0.00 33 1010.1
20260504193030 75 211 0.9 9.6 0.00 0.00 0.00 34 1010.4
20260504191535 75 0 0.0 11.3 0.00 0.00 0.00 37 1010.8
20260504190032 74 0 2.6 14.8 0.00 0.00 0.00 35 1010.9
20260504184537 74 229 3.5 9.6 0.00 0.00 0.00 33 1011.0
20260504183031 74 0 0.0 12.2 0.00 0.00 0.00 39 1011.3
20260504181530 73 0 0.0 10.4 0.00 0.00 0.00 35 1011.5
20260504180048 73 0 0.0 4.3 0.00 0.00 0.00 35 1011.6
20260504174530 73 0 0.0 13.0 0.00 0.00 0.00 38 1011.9
20260504173035 72 0 0.0 7.0 0.00 0.00 0.00 38 1012.1
20260504171532 71 0 0.9 9.6 0.00 0.00 0.00 37 1012.3
20260504081531 51 0 0.0 1.7 0.00 0.00 0.00 66 1014.7
20260504044529 43 0 0.0 0.0 0.00 0.00 0.00 79 1015.1
20260504043028 43 0 0.0 0.0 0.00 0.00 0.00 77 1015.2
20260504041534 44 0 0.0 0.0 0.00 0.00 0.00 78 1015.3
20260504040033 44 0 0.0 0.0 0.00 0.00 0.00 77 1015.2
20260504034542 44 0 0.0 0.0 0.00 0.00 0.00 77 1015.1
20260504033033 44 0 0.0 0.0 0.00 0.00 0.00 78 1015.1
20260504031530 43 0 0.0 0.0 0.00 0.00 0.00 76 1015.0
20260504030038 43 0 0.0 0.9 0.00 0.00 0.00 74 1014.8
20260504024530 43 0 0.0 0.0 0.00 0.00 0.00 75 1014.6
20260504023030 43 0 0.0 0.0 0.00 0.00 0.00 73 1014.6
20260504021532 44 0 0.0 0.0 0.00 0.00 0.00 73 1014.7
20260504020038 45 0 0.0 0.0 0.00 0.00 0.00 71 1014.7
20260504014532 45 0 0.0 0.0 0.00 0.00 0.00 67 1014.5
20260504013029 46 0 0.0 0.0 0.00 0.00 0.00 66 1014.5
20260504011531 47 0 0.0 0.0 0.00 0.00 0.00 62 1014.4
20260504010030 49 0 0.0 0.0 0.00 0.00 0.00 62 1014.3
20260504004531 51 0 0.0 0.0 0.00 0.00 0.00 55 1014.3
20260504003030 53 0 0.0 0.0 0.00 0.00 0.00 50 1014.0
20260504001533 55 0 0.0 0.0 0.00 0.00 0.00 46 1014.1
20260504000033 57 0 0.0 0.0 0.00 0.00 0.00 41 1014.0